When you browse on this site, cookies collect data to enhance your experience and personalize the content and advertising you see.
Visit our Privacy Policy to learn more. By continuing to use the site, you agree to this use of cookies and data.
  • In Spain
  • List of Countries
  • For 7 days
  • Water Temperature
  • Satellite Maps
  • Weather Map
  • Weather Widgets
  • user-avatar
    Login

    Hourly Weather Delhi

    Today, 17 July, Wednesday

    Time Temperature Precipitation Wind Pressure Humidity
    00:00 +30°C° 0.8 mm 1 mps 731 mmHg 64%
    01:00 +30°C° 0.8 mm 1 mps 731 mmHg 66%
    02:00 +30°C° 0.8 mm 1 mps 730 mmHg 67%
    03:00 +30°C° 1.2 mm 1 mps 731 mmHg 69%
    04:00 +29°C° 1.2 mm 1 mps 731 mmHg 70%
    05:00 +29°C° 0 mm 3 mps 731 mmHg 65%
    06:00 +30°C° 1 mm 3 mps 731 mmHg 63%
    07:00 +31°C° 1 mm 2 mps 731 mmHg 61%
    08:00 +32°C° 1 mm 1 mps 732 mmHg 58%
    09:00 +33°C° 0 mm 1 mps 732 mmHg 53%
    10:00 +35°C° 0 mm 1 mps 732 mmHg 47%
    11:00 +36°C° 0 mm 1 mps 732 mmHg 44%
    12:00 +37°C° 0 mm 1 mps 732 mmHg 41%
    13:00 +39°C° 0 mm 2 mps 731 mmHg 38%
    14:00 +40°C° 0 mm 2 mps 730 mmHg 35%
    15:00 +39°C° 0 mm 3 mps 730 mmHg 36%
    16:00 +39°C° 0 mm 3 mps 730 mmHg 38%
    17:00 +39°C° 0 mm 3 mps 729 mmHg 39%
    18:00 +37°C° 0.4 mm 3 mps 730 mmHg 44%
    19:00 +36°C° 0.4 mm 2 mps 730 mmHg 48%
    20:00 +34°C° 0.4 mm 1 mps 730 mmHg 52%
    21:00 +34°C° 0.2 mm 1 mps 730 mmHg 52%
    22:00 +34°C° 0.2 mm 1 mps 730 mmHg 53%
    23:00 +34°C° 0.2 mm 1 mps 731 mmHg 53%

    Tomorrow, 18 July, Thursday

    Time Temperature Precipitation Wind Pressure Humidity
    00:00 +34°C° 0 mm 1 mps 730 mmHg 54%
    01:00 +33°C° 0 mm 1 mps 730 mmHg 56%
    02:00 +33°C° 0 mm 1 mps 730 mmHg 58%
    03:00 +33°C° 0.7 mm 1 mps 730 mmHg 60%
    04:00 +32°C° 0.7 mm 1 mps 730 mmHg 63%
    05:00 +32°C° 0.7 mm 1 mps 730 mmHg 65%
    06:00 +32°C° 1.6 mm 2 mps 730 mmHg 64%
    07:00 +34°C° 1.6 mm 2 mps 731 mmHg 62%
    08:00 +34°C° 1.6 mm 2 mps 731 mmHg 61%
    09:00 +35°C° 0.4 mm 2 mps 731 mmHg 56%
    10:00 +37°C° 0.4 mm 2 mps 731 mmHg 50%
    11:00 +37°C° 0.4 mm 1 mps 731 mmHg 45%
    12:00 +39°C° 0.1 mm 2 mps 731 mmHg 43%
    13:00 +40°C° 0.1 mm 2 mps 730 mmHg 40%
    14:00 +40°C° 0.1 mm 2 mps 730 mmHg 37%
    15:00 +39°C° 0.2 mm 3 mps 729 mmHg 42%
    16:00 +38°C° 0.2 mm 4 mps 729 mmHg 47%
    17:00 +37°C° 0.2 mm 4 mps 728 mmHg 52%
    18:00 +36°C° 1.3 mm 3 mps 729 mmHg 55%
    19:00 +35°C° 1.3 mm 3 mps 729 mmHg 59%
    20:00 +34°C° 1.3 mm 2 mps 730 mmHg 62%
    21:00 +34°C° 0.3 mm 2 mps 730 mmHg 62%
    22:00 +32°C° 0.3 mm 2 mps 730 mmHg 62%
    23:00 +32°C° 0.3 mm 1 mps 730 mmHg 62%

    Day after tomorrow, 19 July, Friday

    Time Temperature Precipitation Wind Pressure Humidity
    00:00 +33°C° 0.1 mm 1 mps 730 mmHg 61%
    01:00 +33°C° 0.1 mm 1 mps 730 mmHg 61%
    02:00 +33°C° 0.1 mm 1 mps 729 mmHg 60%
    03:00 +32°C° 0.2 mm 1 mps 729 mmHg 61%
    04:00 +32°C° 0.2 mm 1 mps 730 mmHg 63%
    05:00 +32°C° 0.2 mm 1 mps 730 mmHg 64%
    06:00 +33°C° 0.6 mm 1 mps 730 mmHg 61%
    07:00 +33°C° 0.6 mm 1 mps 731 mmHg 59%
    08:00 +34°C° 0.6 mm 1 mps 731 mmHg 57%
    09:00 +35°C° 0.2 mm 1 mps 731 mmHg 52%
    10:00 +37°C° 0.2 mm 1 mps 732 mmHg 47%
    11:00 +39°C° 0.2 mm 1 mps 732 mmHg 42%
    12:00 +40°C° 0 mm 2 mps 731 mmHg 41%
    13:00 +40°C° 0 mm 2 mps 730 mmHg 40%
    14:00 +40°C° 0 mm 3 mps 730 mmHg 39%
    15:00 +40°C° 0 mm 2 mps 730 mmHg 39%
    16:00 +40°C° 0 mm 2 mps 729 mmHg 39%
    17:00 +40°C° 0 mm 2 mps 729 mmHg 38%
    18:00 +39°C° 0.1 mm 2 mps 729 mmHg 42%
    19:00 +38°C° 0.1 mm 3 mps 729 mmHg 45%
    20:00 +37°C° 0.1 mm 3 mps 729 mmHg 48%
    21:00 +37°C° 0.3 mm 3 mps 730 mmHg 49%
    22:00 +37°C° 0.3 mm 2 mps 730 mmHg 49%
    23:00 +36°C° 0.3 mm 2 mps 730 mmHg 49%

    20 July, Saturday

    Time Temperature Precipitation Wind Pressure Humidity
    00:00 +35°C° 0 mm 1 mps 730 mmHg 51%
    01:00 +35°C° 0 mm 1 mps 730 mmHg 53%
    02:00 +32°C° 0 mm 0 mps 729 mmHg 54%
    03:00 +32°C° 0.2 mm 0 mps 729 mmHg 55%
    04:00 +34°C° 0.2 mm 1 mps 730 mmHg 56%
    05:00 +34°C° 0.2 mm 1 mps 730 mmHg 56%
    06:00 +33°C° 0 mm 0 mps 730 mmHg 53%
    07:00 +34°C° 0 mm 0 mps 731 mmHg 50%
    08:00 +35°C° 0 mm 0 mps 731 mmHg 46%
    09:00 +39°C° 0 mm 1 mps 731 mmHg 44%
    10:00 +39°C° 0 mm 1 mps 731 mmHg 41%
    11:00 +40°C° 0 mm 1 mps 731 mmHg 39%
    12:00 +41°C° 0 mm 2 mps 731 mmHg 37%
    13:00 +42°C° 0 mm 3 mps 730 mmHg 36%
    14:00 +43°C° 0 mm 3 mps 729 mmHg 34%
    15:00 +43°C° 0 mm 3 mps 729 mmHg 34%
    16:00 +43°C° 0 mm 3 mps 729 mmHg 34%
    17:00 +43°C° 0 mm 3 mps 728 mmHg 33%
    18:00 +42°C° 0 mm 3 mps 729 mmHg 35%
    19:00 +42°C° 0 mm 3 mps 729 mmHg 36%
    20:00 +40°C° 0 mm 3 mps 729 mmHg 37%
    21:00 +40°C° 0 mm 2 mps 729 mmHg 38%
    22:00 +39°C° 0 mm 2 mps 729 mmHg 39%
    23:00 +39°C° 0 mm 1 mps 729 mmHg 40%

    21 July, Sunday

    Time Temperature Precipitation Wind Pressure Humidity
    00:00 +37°C° 0 mm 1 mps 728 mmHg 41%
    01:00 +37°C° 0 mm 1 mps 728 mmHg 42%
    02:00 +37°C° 0 mm 1 mps 728 mmHg 43%
    03:00 +36°C° 0.1 mm 1 mps 728 mmHg 44%
    04:00 +36°C° 0.1 mm 1 mps 728 mmHg 45%
    05:00 +36°C° 0.1 mm 1 mps 728 mmHg 46%
    06:00 +37°C° 0.1 mm 1 mps 728 mmHg 43%
    07:00 +39°C° 0.1 mm 1 mps 729 mmHg 41%
    08:00 +40°C° 0.1 mm 1 mps 729 mmHg 38%
    09:00 +41°C° 0 mm 2 mps 729 mmHg 35%
    10:00 +43°C° 0 mm 3 mps 729 mmHg 31%
    11:00 +44°C° 0 mm 4 mps 729 mmHg 28%
    12:00 +45°C° 0 mm 4 mps 729 mmHg 27%
    13:00 +47°C° 0 mm 4 mps 728 mmHg 26%
    14:00 +47°C° 0 mm 5 mps 727 mmHg 25%
    15:00 +47°C° 0 mm 5 mps 727 mmHg 26%
    16:00 +46°C° 0 mm 5 mps 727 mmHg 26%
    17:00 +46°C° 0 mm 5 mps 726 mmHg 27%
    18:00 +44°C° 0 mm 4 mps 726 mmHg 28%
    19:00 +43°C° 0 mm 4 mps 726 mmHg 30%
    20:00 +42°C° 0 mm 4 mps 727 mmHg 31%
    21:00 +42°C° 0 mm 3 mps 727 mmHg 32%
    22:00 +41°C° 0 mm 2 mps 727 mmHg 32%
    23:00 +40°C° 0 mm 1 mps 727 mmHg 33%

    22 July, Monday

    Time Temperature Precipitation Wind Pressure Humidity
    00:00 +40°C° 0 mm 1 mps 727 mmHg 34%
    01:00 +40°C° 0 mm 1 mps 726 mmHg 34%
    02:00 +39°C° 0 mm 1 mps 726 mmHg 35%
    03:00 +39°C° 0 mm 1 mps 726 mmHg 35%
    04:00 +39°C° 0 mm 2 mps 727 mmHg 35%
    05:00 +39°C° 0 mm 2 mps 727 mmHg 35%
    06:00 +39°C° 0 mm 3 mps 727 mmHg 34%
    07:00 +40°C° 0 mm 4 mps 728 mmHg 33%
    08:00 +41°C° 0 mm 6 mps 728 mmHg 31%
    09:00 +42°C° 0 mm 6 mps 728 mmHg 29%
    10:00 +44°C° 0 mm 6 mps 728 mmHg 27%
    11:00 +45°C° 0 mm 6 mps 728 mmHg 24%
    12:00 +46°C° 0 mm 6 mps 728 mmHg 23%
    13:00 +47°C° 0 mm 6 mps 727 mmHg 23%
    14:00 +47°C° 0 mm 6 mps 726 mmHg 22%
    15:00 +47°C° 0 mm 5 mps 726 mmHg 22%
    16:00 +47°C° 0 mm 5 mps 725 mmHg 22%
    17:00 +47°C° 0 mm 5 mps 725 mmHg 23%
    18:00 +46°C° 0 mm 5 mps 725 mmHg 24%
    19:00 +45°C° 0 mm 5 mps 725 mmHg 24%
    20:00 +43°C° 0 mm 5 mps 725 mmHg 25%
    21:00 +43°C° 0 mm 4 mps 725 mmHg 25%
    22:00 +42°C° 0 mm 4 mps 726 mmHg 26%
    23:00 +42°C° 0 mm 3 mps 726 mmHg 26%
    Show more